CW9718 Weather Reports


time (UTC)temp
F
wind
direction
speed
knots
gust
knots
rain 1hr
in
rain 24hr
in
rain mn
in
humidity
%
barometer
mb
20260510142326 66 360 0.0 0.0 0.00 0.00 0.00 89 1018.2
20260510141822 66 360 0.0 0.0 0.00 0.00 0.00 89 1018.3
20260510141359 66 360 0.0 0.0 0.00 0.00 0.00 89 1018.1
20260510140858 66 360 0.0 0.0 0.00 0.00 0.00 89 1017.9
20260510140336 66 360 0.0 1.7 0.00 0.00 0.00 89 1017.7
20260510135822 66 360 0.9 3.5 0.00 0.00 0.00 89 1017.6
20260510135326 66 360 0.0 3.5 0.00 0.00 0.00 89 1017.3
20260510134832 66 360 0.0 4.3 0.00 0.00 0.00 89 1017.2
20260510134339 66 351 1.7 4.3 0.00 0.00 0.00 89 1017.0
20260510133828 65 34 0.0 2.6 0.00 0.00 0.00 89 1017.0
20260510133338 65 33 0.0 2.6 0.00 0.00 0.00 89 1017.1
20260510132828 65 348 0.9 2.6 0.00 0.00 0.00 89 1017.2
20260510132337 65 348 0.0 2.6 0.00 0.00 0.00 89 1017.2
20260510131822 65 348 0.0 5.2 0.00 0.00 0.00 89 1017.3
20260510131327 65 348 0.9 5.2 0.00 0.00 0.00 89 1017.3
20260510130824 65 143 0.0 0.0 0.00 0.00 0.00 89 1017.0
20260510130335 65 144 0.0 0.0 0.00 0.00 0.00 89 1016.8
20260510125832 65 144 0.0 0.0 0.00 0.00 0.00 89 1016.7
20260510125330 65 144 0.0 0.0 0.00 0.00 0.00 89 1016.3
20260510124827 65 144 0.0 0.0 0.00 0.00 0.00 89 1015.8
20260510124355 65 144 0.0 0.0 0.00 0.00 0.00 89 1015.6
20260510123838 65 144 0.0 0.0 0.00 0.00 0.00 88 1015.5
20260510123334 64 144 0.0 0.0 0.00 0.00 0.00 88 1015.2
20260510122825 64 144 0.0 0.0 0.00 0.00 0.00 88 1015.0
20260510122332 64 144 0.0 0.0 0.00 0.00 0.00 88 1014.8
20260510121844 64 144 0.0 0.0 0.00 0.00 0.00 88 1014.7
20260510121330 64 144 0.0 0.0 0.00 0.00 0.00 88 1014.7
20260510120834 64 144 0.0 0.0 0.00 0.00 0.00 88 1014.8
20260510120336 64 144 0.0 0.0 0.00 0.00 0.00 88 1014.7
20260510115851 64 144 0.0 0.0 0.00 0.00 0.00 88 1014.5
20260510115331 64 144 0.0 0.0 0.00 0.00 0.00 88 1014.5
20260510114830 64 144 0.0 0.0 0.00 0.00 0.00 88 1014.3
20260510114342 64 144 0.0 0.0 0.00 0.00 0.00 87 1014.1
20260510113840 64 144 0.0 0.0 0.00 0.00 0.00 87 1014.0
20260510113328 64 144 0.0 0.0 0.00 0.00 0.00 87 1013.9
20260510112832 64 146 0.0 0.0 0.00 0.00 0.00 87 1013.9
20260510112324 64 146 0.0 0.0 0.00 0.00 0.00 87 1014.4
20260510111848 64 148 0.0 0.0 0.00 0.00 0.00 87 1014.4
20260510111326 64 148 0.0 0.0 0.00 0.00 0.00 87 1014.6
20260510110826 64 148 0.0 0.0 0.00 0.00 0.00 87 1014.8
20260510110326 64 148 0.0 0.0 0.00 0.00 0.00 86 1014.8
20260510105822 64 149 0.0 0.0 0.00 0.00 0.00 86 1014.7
20260510105330 64 149 0.0 0.0 0.00 0.00 0.00 85 1014.7
20260510104839 64 149 0.0 0.0 0.00 0.00 0.00 85 1014.5
20260510104335 64 149 0.0 0.9 0.00 0.00 0.00 85 1014.5
20260510103823 64 151 0.0 0.0 0.00 0.00 0.00 84 1014.4
20260510103357 64 152 0.0 0.0 0.00 0.00 0.00 84 1014.3
20260510102855 64 155 0.0 0.0 0.00 0.00 0.00 84 1014.3
20260510102322 64 155 0.0 0.0 0.00 0.00 0.00 84 1014.1
20260510101834 64 155 0.0 0.0 0.00 0.00 0.00 84 1014.2
20260510101334 64 155 0.0 0.0 0.00 0.00 0.00 84 1014.2
20260510100844 64 155 0.0 0.0 0.00 0.00 0.00 84 1013.9
20260510100327 64 155 0.0 0.0 0.00 0.00 0.00 84 1013.5
20260510095852 64 155 0.0 0.0 0.00 0.00 0.00 84 1013.4
20260510095330 64 153 0.0 0.9 0.00 0.00 0.00 84 1013.6
20260510094834 64 153 0.0 0.9 0.00 0.00 0.00 84 1013.6
20260510094324 64 161 0.0 0.0 0.00 0.00 0.00 85 1013.4
20260510093834 64 161 0.0 0.9 0.00 0.00 0.00 85 1013.5
20260510093334 64 162 0.0 0.9 0.00 0.00 0.00 85 1013.5
20260510092832 64 163 0.0 0.9 0.00 0.00 0.00 84 1013.4
20260510092321 64 163 0.0 1.7 0.00 0.00 0.00 84 1013.6
20260510091828 64 165 0.0 0.9 0.00 0.00 0.00 84 1013.6
20260510091347 64 163 0.0 0.0 0.00 0.00 0.00 84 1013.7
20260510090832 64 80 0.0 0.0 0.00 0.00 0.00 84 1013.8
20260510090400 64 49 0.0 0.0 0.00 0.00 0.00 83 1014.2
20260510085839 64 49 0.0 0.0 0.00 0.00 0.00 83 1014.5
20260510085326 64 49 0.0 0.0 0.00 0.00 0.00 83 1014.4
20260510084859 64 49 0.0 0.0 0.00 0.00 0.00 83 1014.3
20260510084333 64 49 0.0 0.0 0.00 0.00 0.00 83 1014.3
20260510083828 65 49 0.0 0.0 0.00 0.00 0.00 83 1014.7
20260510083349 65 49 0.0 0.0 0.00 0.00 0.00 83 1014.6
20260510082843 65 49 0.0 0.0 0.00 0.00 0.00 82 1014.3
20260510082338 65 49 0.0 0.0 0.00 0.00 0.00 82 1014.6
20260510081849 65 49 0.0 0.0 0.00 0.00 0.00 82 1014.4
20260510081343 65 49 0.0 2.6 0.00 0.00 0.00 82 1014.3
20260510080851 65 332 0.0 4.3 0.00 0.00 0.00 82 1014.4
20260510080339 66 21 0.9 4.3 0.00 0.00 0.00 81 1014.4
20260510075837 66 339 2.6 4.3 0.00 0.00 0.00 81 1014.6
20260510075331 66 207 0.0 2.6 0.00 0.00 0.00 80 1014.2
20260510074832 67 115 0.9 3.5 0.00 0.00 0.00 79 1011.8
20260510074327 67 123 2.6 3.5 0.00 0.00 0.00 78 1011.3
20260510073854 67 341 0.0 3.5 0.00 0.00 0.00 77 1014.1
20260510073405 68 339 0.9 3.5 0.00 0.00 0.00 77 1014.8
20260510072854 68 338 0.0 3.5 0.00 0.00 0.00 77 1015.2
20260510072327 68 337 0.0 3.5 0.00 0.00 0.00 77 1015.4
20260510071836 69 306 0.9 4.3 0.00 0.00 0.00 77 1015.6
20260510071325 69 355 0.0 4.3 0.00 0.00 0.00 76 1015.7
20260510070844 69 220 0.9 3.5 0.00 0.00 0.00 76 1015.8
20260510070338 69 188 0.0 1.7 0.00 0.00 0.00 76 1015.8
20260510065836 69 163 0.0 0.9 0.00 0.00 0.00 76 1015.8
20260510065325 69 146 0.0 0.0 0.00 0.00 0.00 76 1016.0
20260510064833 69 146 0.0 0.0 0.00 0.00 0.00 76 1015.9
20260510064329 69 146 0.0 0.9 0.00 0.00 0.00 76 1015.9
20260510063822 69 146 0.0 0.9 0.00 0.00 0.00 77 1016.0
20260510063329 70 92 0.0 0.0 0.00 0.00 0.00 79 1015.9
20260510062822 70 82 0.0 0.0 0.00 0.00 0.00 79 1015.6
20260510062400 70 82 0.0 0.0 0.00 0.00 0.00 77 1015.0
20260510061821 70 82 0.0 0.0 0.00 0.00 0.00 76 1014.5
20260510061328 70 82 0.0 0.0 0.00 0.00 0.00 76 1014.2
20260510060823 70 82 0.0 0.0 0.00 0.00 0.00 76 1014.0
20260510060331 70 82 0.0 0.0 0.00 0.00 0.00 75 1013.6
20260510055835 70 82 0.0 0.0 0.00 0.00 0.00 75 1013.5
20260510055341 70 82 0.0 0.0 0.00 0.00 0.00 74 1014.0
20260510054844 70 82 0.0 0.0 0.00 0.00 0.00 74 1013.9
20260510054333 70 82 0.0 0.0 0.00 0.00 0.00 72 1013.5
20260510053850 70 82 0.0 0.0 0.00 0.00 0.00 73 1013.2
20260510053334 70 82 0.0 0.0 0.00 0.00 0.00 73 1013.2
20260510052838 70 76 0.0 0.0 0.00 0.00 0.00 74 1013.3
20260510052331 70 76 0.0 0.0 0.00 0.00 0.00 73 1013.6
20260510051836 70 76 0.0 0.0 0.00 0.00 0.00 72 1013.8
20260510051348 70 76 0.0 0.0 0.00 0.00 0.00 72 1013.9
20260510050835 70 75 0.0 0.0 0.00 0.00 0.00 71 1014.0
20260510050335 70 75 0.0 0.0 0.00 0.00 0.00 71 1014.1
20260510045824 70 75 0.0 0.0 0.00 0.00 0.00 70 1013.9
20260510045323 70 75 0.0 0.0 0.00 0.00 0.00 70 1013.9
20260510044831 70 75 0.0 0.0 0.00 0.00 0.00 70 1013.9
20260510044325 70 75 0.0 0.0 0.00 0.00 0.00 72 1013.6
20260510043828 70 75 0.0 0.0 0.00 0.00 0.00 70 1013.7
20260510043322 70 75 0.0 0.0 0.00 0.00 0.00 70 1013.8
20260510042830 70 75 0.0 0.0 0.00 0.00 0.00 70 1014.0